South Lake Tahoe, CA

4:41 AM PDT on August 19, 2017 (GMT -0700)
Lake Tahoe

Weather History for KTVL - September, 2013

Change the Weather History Date:

Saturday, September 7, 2013

  Actual Average Record
Temperature  
Mean Temperature 61 °F 56 °F  
Max Temperature 81 °F 76 °F 90 °F (1988)
Min Temperature 40 °F 37 °F 27 °F (2002)
Degree Days  
Heating Degree Days 4 9  
Month to date heating degree days 11 58  
Since 1 July heating degree days 187 354  
Cooling Degree Days 0 0  
Month to date cooling degree days 4 0  
Year to date cooling degree days 102 30  
Growing Degree Days 9 (Base 50)    
Moisture  
Dew Point 35 °F    
Average Humidity 48    
Maximum Humidity 79    
Minimum Humidity 16    
Precipitation  
Precipitation 0.00 in - 1.27 in (1965)
Month to date precipitation T  
Year to date precipitation 6.44  
Sea Level Pressure  
Sea Level Pressure 30.03 in    
Wind  
Wind Speed 3 mph (SSW)    
Max Wind Speed 17 mph    
Max Gust Speed 28 mph    
Visibility 8 miles    
Events      
T = Trace of Precipitation, MM = Missing Value Source: NWS Daily Summary

Daily Weather History Graph

Daily Weather History Graph

Search for Another Location

Airport or City:

Trip Planner

Search our weather history database for the weather conditions in past years. The results will help you decide how hot, cold, wet, or windy it might be!

Date:

Astronomy

Sep. 07, 2013 Rise Set
Actual Time 6:34 AM PDT 7:20 PM PDT
Civil Twilight 6:07 AM PDT 7:47 PM PDT
Nautical Twilight 5:35 AM PDT 8:19 PM PDT
Astronomical Twilight 5:02 AM PDT 8:52 PM PDT
Moon 8:52 AM PDT (9/7) 8:23 PM PDT (9/7)
Length of Visible Light 13h 39m
Length of Day
12h 45m
Waxing Crescent, 6% of the Moon is Illuminated
Sep 7
Waxing Crescent
Sep 12
First Quarter
Sep 19
Full
Sep 26
Last Quarter
Oct 4
New

Hourly Weather History & Observations

Time (PDT) Temp. Windchill Dew Point Humidity Pressure Visibility Wind Dir Wind Speed Gust Speed Precip Events Conditions
12:53 AM 50.0 °F - 37.0 °F 61% 30.04 in 10.0 mi Calm Calm - N/A   Clear
1:53 AM 46.9 °F - 36.0 °F 66% 30.04 in 9.0 mi SSW 3.5 mph - N/A   Clear
2:53 AM 46.9 °F - 36.0 °F 66% 30.04 in 7.0 mi Calm Calm - N/A   Clear
3:53 AM 45.0 °F 43.5 °F 35.1 °F 68% 30.03 in 7.0 mi SSW 3.5 mph - N/A   Clear
4:53 AM 43.0 °F - 34.0 °F 71% 30.03 in 6.0 mi Calm Calm - N/A   Haze
5:53 AM 42.1 °F 40.2 °F 34.0 °F 73% 30.04 in 6.0 mi SSW 3.5 mph - N/A   Haze
6:53 AM 39.9 °F 35.8 °F 33.1 °F 77% 30.06 in 5.0 mi SSW 5.8 mph - N/A   Haze
7:53 AM 44.1 °F - 35.1 °F 71% 30.08 in 6.0 mi Calm Calm - N/A   Haze
8:53 AM 57.0 °F - 37.9 °F 49% 30.06 in 7.0 mi Calm Calm - N/A   Clear
9:53 AM 69.1 °F - 39.0 °F 33% 30.03 in 8.0 mi Variable 5.8 mph - N/A   Clear
10:53 AM 72.0 °F - 41.0 °F 33% 30.03 in 9.0 mi Variable 5.8 mph - N/A   Clear
11:53 AM 73.9 °F - 44.1 °F 34% 30.02 in 10.0 mi NNE 8.1 mph - N/A   Clear
12:53 PM 78.1 °F - 36.0 °F 22% 30.00 in 6.0 mi Variable 3.5 mph - N/A   Haze
1:53 PM 79.0 °F - 28.0 °F 15% 30.01 in 10.0 mi SSW 12.7 mph 20.7 mph N/A   Clear
2:53 PM 79.0 °F - 28.9 °F 16% 29.99 in 10.0 mi South 11.5 mph 20.7 mph N/A   Clear
3:53 PM 79.0 °F - 30.9 °F 17% 29.99 in 10.0 mi SSW 9.2 mph - N/A   Clear
4:53 PM 78.1 °F - 28.9 °F 17% 29.99 in 10.0 mi South 11.5 mph 16.1 mph N/A   Clear
5:53 PM 75.0 °F - 28.9 °F 18% 30.00 in 10.0 mi SSW 8.1 mph 18.4 mph N/A   Clear
6:53 PM 72.0 °F - 32.0 °F 23% 30.02 in 10.0 mi Calm Calm - N/A   Clear
7:53 PM 64.9 °F - 35.1 °F 33% 30.04 in 10.0 mi Calm Calm - N/A   Clear
8:53 PM 60.1 °F - 37.9 °F 44% 30.05 in 9.0 mi Calm Calm - N/A   Clear
9:53 PM 57.0 °F - 37.9 °F 49% 30.03 in 10.0 mi Calm Calm - N/A   Clear
10:53 PM 52.0 °F - 37.0 °F 57% 30.03 in 10.0 mi Calm Calm - N/A   Clear
11:53 PM 48.9 °F - 35.1 °F 59% 30.04 in 10.0 mi Calm Calm - N/A   Clear